Greenland, AR

9:49 PM CST on February 10, 2016 (GMT -0600)
Drake

Weather History for KFYV - December, 2011

Change the Weather History Date:

Monday, December 19, 2011

  Actual Average Record
Temperature  
Mean Temperature 52 °F 36 °F  
Max Temperature 59 °F 47 °F 72 °F (1978)
Min Temperature 46 °F 26 °F 6 °F (2000)
Degree Days  
Heating Degree Days 12 29  
Month to date heating degree days 504  
Since 1 July heating degree days 1333  
Growing Degree Days 2 (Base 50)    
Moisture  
Dew Point 37 °F    
Average Humidity 64    
Maximum Humidity 100    
Minimum Humidity 32    
Precipitation  
Precipitation 0.63 in 0.09 in 0.72 in (1952)
Month to date precipitation 2.06  
Year to date precipitation 47.33  
Sea Level Pressure  
Sea Level Pressure 29.96 in    
Wind  
Wind Speed 8 mph (South)    
Max Wind Speed 14 mph    
Max Gust Speed 22 mph    
Visibility 8 miles    
Events Rain    
T = Trace of Precipitation, MM = Missing Value Source: NWS Daily Summary

Daily Weather History Graph

Daily Weather History Graph

Search for Another Location

Airport or City:

Trip Planner

Search our weather history database for the weather conditions in past years. The results will help you decide how hot, cold, wet, or windy it might be!

Date:

Astronomy

Dec. 19, 2011 Rise Set
Actual Time 7:22 AM CST 5:05 PM CST
Civil Twilight 6:53 AM CST 5:33 PM CST
Nautical Twilight 6:21 AM CST 6:05 PM CST
Astronomical Twilight 5:50 AM CST 6:37 PM CST
Moon 1:40 AM CST (12/19) 12:58 PM CST (12/19)
Length of Visible Light 10h 40m
Length of Day
9h 42m
Waning Crescent, 31% of the Moon is Illuminated
Dec 19
Waning Crescent
Dec 24
New
Jan 1
First Quarter
Jan 9
Full
Jan 16
Last Quarter

Hourly Weather History & Observations

Time (CST) Temp. Windchill Dew Point Humidity Pressure Visibility Wind Dir Wind Speed Gust Speed Precip Events Conditions
12:25 AM 48.2 °F - 33.8 °F 58% 30.06 in 10.0 mi SSW 12.7 mph 21.9 mph N/A   Mostly Cloudy
12:53 AM 48.9 °F - 34.0 °F 56% 30.05 in 10.0 mi SSW 13.8 mph - N/A   Partly Cloudy
1:53 AM 48.9 °F - 34.0 °F 56% 30.04 in 10.0 mi SSW 10.4 mph - N/A   Overcast
2:53 AM 50.0 °F - 34.0 °F 54% 30.05 in 10.0 mi SSW 11.5 mph 18.4 mph N/A   Mostly Cloudy
3:53 AM 50.0 °F - 35.1 °F 57% 30.04 in 10.0 mi SSW 5.8 mph - N/A   Overcast
4:53 AM 50.0 °F - 35.1 °F 57% 30.04 in 10.0 mi South 8.1 mph - N/A   Overcast
5:53 AM 50.0 °F - 35.1 °F 57% 30.03 in 10.0 mi South 4.6 mph - N/A   Overcast
6:53 AM 50.0 °F - 35.1 °F 57% 30.04 in 10.0 mi Calm Calm - N/A   Overcast
7:53 AM 48.9 °F - 37.0 °F 64% 30.05 in 10.0 mi SSW 4.6 mph - N/A   Clear
8:53 AM 51.1 °F - 35.1 °F 54% 30.05 in 10.0 mi SSE 5.8 mph - N/A   Overcast
9:53 AM 52.0 °F - 36.0 °F 54% 30.05 in 10.0 mi South 5.8 mph - N/A   Overcast
10:53 AM 55.0 °F - 35.1 °F 47% 30.03 in 10.0 mi South 8.1 mph - N/A   Overcast
11:53 AM 57.2 °F - 33.8 °F 41% 30.00 in 10.0 mi Variable 5.8 mph - N/A   Overcast
12:53 PM 59.0 °F - 30.2 °F 34% 29.96 in 10.0 mi SSE 6.9 mph - N/A   Overcast
1:53 PM 57.9 °F - 28.0 °F 32% 29.93 in 10.0 mi South 10.4 mph 19.6 mph N/A   Overcast
2:53 PM 57.0 °F - 28.9 °F 34% 29.91 in 10.0 mi SSE 8.1 mph 17.3 mph N/A   Overcast
3:53 PM 55.9 °F - 32.0 °F 40% 29.90 in 10.0 mi SE 4.6 mph - 0.00 in   Overcast
4:53 PM 55.9 °F - 30.9 °F 39% 29.87 in 10.0 mi ESE 6.9 mph - N/A   Overcast
5:53 PM 55.0 °F - 30.9 °F 40% 29.87 in 10.0 mi East 6.9 mph - N/A   Overcast
6:53 PM 53.1 °F - 36.0 °F 52% 29.89 in 10.0 mi Calm Calm - 0.00 in Rain Light Rain
7:53 PM 50.0 °F - 42.1 °F 74% 29.92 in 8.0 mi East 3.5 mph - 0.06 in Rain Rain
8:53 PM 46.9 °F - 45.0 °F 93% 29.88 in 4.0 mi East 9.2 mph - 0.19 in Rain Rain
9:53 PM 48.0 °F - 46.9 °F 96% 29.88 in 4.0 mi Variable 4.6 mph - 0.13 in Rain Rain
10:05 PM 46.4 °F 40.7 °F 46.4 °F 100% 29.89 in 2.5 mi NNW 12.7 mph - 0.07 in Rain Rain
10:11 PM 46.4 °F 43.5 °F 46.4 °F 100% 29.90 in 1.8 mi NNW 5.8 mph - 0.11 in Rain Heavy Rain
10:15 PM 46.4 °F 44.3 °F 46.4 °F 100% 29.90 in 2.5 mi NW 4.6 mph - 0.12 in Rain Rain
10:17 PM 46.4 °F - 46.4 °F 100% 29.91 in 3.0 mi Calm Calm - 0.12 in Rain Light Rain
10:39 PM 46.4 °F - 46.4 °F 100% 29.91 in 5.0 mi Calm Calm - 0.17 in Rain Light Rain
10:53 PM 46.9 °F - - N/A% 29.91 in 3.0 mi NNW 3.5 mph - 0.18 in Rain Light Rain
11:17 PM 46.4 °F - - N/A% 29.91 in 4.0 mi Calm Calm - 0.03 in Rain Light Rain
11:26 PM 46.4 °F - - N/A% 29.91 in 4.0 mi Calm Calm - 0.05 in Rain Rain
11:34 PM 46.4 °F - - N/A% 29.90 in 5.0 mi Calm Calm - 0.06 in Rain Light Rain
11:53 PM 46.9 °F - 46.9 °F 100% 29.90 in 5.0 mi Calm Calm - 0.07 in Rain Light Rain